Location: Newark
(7.0858°N, 171.3717°E)
Time: 07:00:59
(UTC+00:00)

Courier 1B - Pass Details

Date: 03 December 2020
Orbit: 962 x 1209 km, 28.3° (Epoch: 20 January)

Event Time Altitude Azimuth Distance (km) Brightness Sun altitude
Rises 12:05:50 0° 317° (NW) 3,737 - -74.2°
Reaches altitude 10° 12:09:58 10° 341° (NNW) 2,837 - -74.5°
Maximum altitude 12:13:35 15° 13° (NNE) 2,559 - -74.7°
Drops below altitude 10° 12:17:18 10° 44° (NE) 2,935 - -74.8°
Sets 12:21:41 0° 67° (ENE) 3,952 - -74.9°
